| time (UTC) | temp F | wind direction | speed MPH | gust MPH | rain 1hr in | rain 24hr in | rain mn in | humidity % | barometer mb |
| 20260504151016 | 69 | 284 | 2.0 | 5.0 | 0.00 | 0.00 | 0.00 | 48 | |
| 20260504150516 | 68 | 251 | 2.0 | 3.0 | 0.00 | 0.00 | 0.00 | 47 | |
| 20260504141017 | 64 | 310 | 1.0 | 3.0 | 0.00 | 0.00 | 0.00 | 57 | |
| 20260504140517 | 64 | 321 | 2.0 | 3.0 | 0.00 | 0.00 | 0.00 | 58 | |
| 20260504130517 | 61 | 168 | 0.0 | 1.0 | 0.00 | 0.00 | 0.00 | 65 | |
| 20260504110517 | 42 | 0.0 | 0.0 | 0.00 | 0.00 | 0.00 | 98 | ||
| 20260504100518 | 42 | 304 | 0.0 | 1.0 | 0.00 | 0.00 | 0.00 | 97 | |
| 20260504081536 | 44 | 0.0 | 0.0 | 0.00 | 0.00 | 0.00 | 94 | ||
| 20260504081036 | 44 | 319 | 0.0 | 1.0 | 0.00 | 0.00 | 0.00 | 93 | |
| 20260504080517 | 44 | 299 | 0.0 | 1.0 | 0.00 | 0.00 | 0.00 | 92 | |
| 20260504050516 | 49 | 315 | 0.0 | 1.0 | 0.00 | 0.00 | 0.00 | 82 | |
| 20260504045516 | 49 | 317 | 0.0 | 0.0 | 0.00 | 0.00 | 0.00 | 82 | |
| 20260504045026 | 50 | 330 | 0.0 | 1.0 | 0.00 | 0.00 | 0.00 | 81 | |
| 20260504044521 | 50 | 316 | 0.0 | 1.0 | 0.00 | 0.00 | 0.00 | 81 | |
| 20260504044020 | 50 | 311 | 0.0 | 1.0 | 0.00 | 0.00 | 0.00 | 81 | |
| 20260504043518 | 50 | 319 | 1.0 | 2.0 | 0.00 | 0.00 | 0.00 | 81 | |
| 20260504043041 | 50 | 298 | 0.0 | 0.0 | 0.00 | 0.00 | 0.00 | 80 | |
| 20260504042541 | 50 | 322 | 0.0 | 1.0 | 0.00 | 0.00 | 0.00 | 80 | |
| 20260504042018 | 50 | 309 | 1.0 | 1.0 | 0.00 | 0.00 | 0.00 | 79 | |
| 20260504041518 | 50 | 284 | 0.0 | 1.0 | 0.00 | 0.00 | 0.00 | 80 | |
| 20260504041018 | 50 | 300 | 0.0 | 1.0 | 0.00 | 0.00 | 0.00 | 80 | |
| 20260504040518 | 51 | 305 | 0.0 | 1.0 | 0.00 | 0.00 | 0.00 | 79 | |
| 20260504040018 | 51 | 340 | 0.0 | 2.0 | 0.00 | 0.00 | 0.00 | 79 | |
| 20260504035519 | 51 | 313 | 1.0 | 2.0 | 0.00 | 0.00 | 0.00 | 78 | |
| 20260504035018 | 51 | 308 | 0.0 | 0.0 | 0.00 | 0.00 | 0.00 | 77 | |
| 20260504034515 | 51 | 310 | 1.0 | 2.0 | 0.00 | 0.00 | 0.00 | 76 | |
| 20260504034015 | 51 | 322 | 0.0 | 1.0 | 0.00 | 0.00 | 0.00 | 77 | |
| 20260504033515 | 51 | 309 | 1.0 | 2.0 | 0.00 | 0.00 | 0.00 | 76 | |
| 20260504033015 | 51 | 303 | 1.0 | 2.0 | 0.00 | 0.00 | 0.00 | 76 | |
| 20260504032516 | 51 | 310 | 1.0 | 2.0 | 0.00 | 0.00 | 0.00 | 77 | |
| 20260504032016 | 52 | 284 | 0.0 | 1.0 | 0.00 | 0.00 | 0.00 | 77 | |
| 20260504031536 | 52 | 270 | 0.0 | 2.0 | 0.00 | 0.00 | 0.00 | 76 | |
| 20260504031016 | 52 | 304 | 1.0 | 2.0 | 0.00 | 0.00 | 0.00 | 75 | |
| 20260504030516 | 52 | 321 | 1.0 | 2.0 | 0.00 | 0.00 | 0.00 | 75 | |
| 20260504030016 | 52 | 330 | 1.0 | 1.0 | 0.00 | 0.00 | 0.00 | 75 | |
| 20260504025516 | 52 | 295 | 0.0 | 1.0 | 0.00 | 0.00 | 0.00 | 73 | |
| 20260504025017 | 53 | 313 | 1.0 | 2.0 | 0.00 | 0.00 | 0.00 | 73 | |
| 20260504024516 | 53 | 334 | 1.0 | 2.0 | 0.00 | 0.00 | 0.00 | 73 | |
| 20260504024016 | 53 | 302 | 0.0 | 2.0 | 0.00 | 0.00 | 0.00 | 72 | |
| 20260504023517 | 53 | 347 | 1.0 | 2.0 | 0.00 | 0.00 | 0.00 | 71 | |
| 20260504023037 | 54 | 331 | 0.0 | 2.0 | 0.00 | 0.00 | 0.00 | 70 | |
| 20260504022516 | 54 | 303 | 0.0 | 1.0 | 0.00 | 0.00 | 0.00 | 70 | |
| 20260504022017 | 54 | 332 | 0.0 | 1.0 | 0.00 | 0.00 | 0.00 | 70 | |
| 20260504021517 | 54 | 0.0 | 0.0 | 0.00 | 0.00 | 0.00 | 68 | ||
| 20260504021017 | 55 | 318 | 0.0 | 2.0 | 0.00 | 0.00 | 0.00 | 67 | |
| 20260504020517 | 55 | 314 | 0.0 | 1.0 | 0.00 | 0.00 | 0.00 | 66 | |
| 20260504020037 | 55 | 320 | 0.0 | 1.0 | 0.00 | 0.00 | 0.00 | 65 | |
| 20260504015537 | 56 | 317 | 0.0 | 2.0 | 0.00 | 0.00 | 0.00 | 64 | |
| 20260504015018 | 56 | 316 | 0.0 | 1.0 | 0.00 | 0.00 | 0.00 | 64 | |
| 20260504014517 | 56 | 284 | 0.0 | 1.0 | 0.00 | 0.00 | 0.00 | 63 | |
| 20260504014017 | 57 | 297 | 0.0 | 1.0 | 0.00 | 0.00 | 0.00 | 62 | |
| 20260504013518 | 57 | 323 | 0.0 | 3.0 | 0.00 | 0.00 | 0.00 | 61 | |
| 20260504013037 | 57 | 0.0 | 0.0 | 0.00 | 0.00 | 0.00 | 61 | ||
| 20260504012518 | 58 | 310 | 0.0 | 1.0 | 0.00 | 0.00 | 0.00 | 60 | |
| 20260504012018 | 58 | 291 | 0.0 | 1.0 | 0.00 | 0.00 | 0.00 | 59 | |
| 20260504011518 | 58 | 283 | 0.0 | 1.0 | 0.00 | 0.00 | 0.00 | 59 | |
| 20260504011018 | 59 | 345 | 0.0 | 2.0 | 0.00 | 0.00 | 0.00 | 58 | |
| 20260504010558 | 59 | 321 | 0.0 | 1.0 | 0.00 | 0.00 | 0.00 | 56 | |
| 20260504010018 | 60 | 322 | 0.0 | 1.0 | 0.00 | 0.00 | 0.00 | 56 | |
| 20260504005518 | 60 | 319 | 0.0 | 1.0 | 0.00 | 0.00 | 0.00 | 55 | |
| 20260504005018 | 61 | 316 | 1.0 | 1.0 | 0.00 | 0.00 | 0.00 | 54 | |
| 20260504004515 | 61 | 308 | 0.0 | 2.0 | 0.00 | 0.00 | 0.00 | 52 | |
| 20260504004015 | 62 | 0.0 | 0.0 | 0.00 | 0.00 | 0.00 | 50 | ||
| 20260504003515 | 62 | 0.0 | 0.0 | 0.00 | 0.00 | 0.00 | 50 | ||
| 20260504003015 | 63 | 310 | 0.0 | 1.0 | 0.00 | 0.00 | 0.00 | 49 | |
| 20260504002536 | 63 | 285 | 0.0 | 1.0 | 0.00 | 0.00 | 0.00 | 48 | |
| 20260504002016 | 64 | 0.0 | 0.0 | 0.00 | 0.00 | 0.00 | 47 | ||
| 20260504001516 | 64 | 273 | 0.0 | 0.0 | 0.00 | 0.00 | 0.00 | 46 | |
| 20260504001036 | 64 | 224 | 1.0 | 3.0 | 0.00 | 0.00 | 0.00 | 45 | |
| 20260504000516 | 65 | 297 | 1.0 | 2.0 | 0.00 | 0.00 | 0.00 | 45 | |
| 20260504000016 | 65 | 262 | 1.0 | 2.0 | 0.00 | 0.00 | 0.00 | 43 | |
| 20260503235516 | 66 | 307 | 1.0 | 2.0 | 0.00 | 0.00 | 0.00 | 43 | |
| 20260503235036 | 66 | 185 | 0.0 | 0.0 | 0.00 | 0.00 | 0.00 | 42 | |
| 20260503234537 | 67 | 314 | 2.0 | 5.0 | 0.00 | 0.00 | 0.00 | 41 | |
| 20260503234017 | 67 | 301 | 2.0 | 3.0 | 0.00 | 0.00 | 0.00 | 41 | |
| 20260503233517 | 68 | 315 | 1.0 | 2.0 | 0.00 | 0.00 | 0.00 | 40 | |
| 20260503233017 | 68 | 278 | 3.0 | 3.0 | 0.00 | 0.00 | 0.00 | 40 | |
| 20260503232517 | 69 | 272 | 2.0 | 4.0 | 0.00 | 0.00 | 0.00 | 39 | |
| 20260503232057 | 69 | 274 | 1.0 | 2.0 | 0.00 | 0.00 | 0.00 | 39 | |
| 20260503231517 | 69 | 319 | 2.0 | 3.0 | 0.00 | 0.00 | 0.00 | 38 | |
| 20260503231017 | 69 | 279 | 4.0 | 6.0 | 0.00 | 0.00 | 0.00 | 37 | |
| 20260503230517 | 70 | 255 | 2.0 | 5.0 | 0.00 | 0.00 | 0.00 | 37 | |
| 20260503230017 | 70 | 311 | 2.0 | 4.0 | 0.00 | 0.00 | 0.00 | 38 | |
| 20260503225558 | 69 | 238 | 3.0 | 4.0 | 0.00 | 0.00 | 0.00 | 38 | |
| 20260503225018 | 70 | 297 | 4.0 | 5.0 | 0.00 | 0.00 | 0.00 | 38 | |
| 20260503224517 | 70 | 271 | 3.0 | 4.0 | 0.00 | 0.00 | 0.00 | 38 | |
| 20260503224018 | 70 | 275 | 3.0 | 7.0 | 0.00 | 0.00 | 0.00 | 37 | |
| 20260503223518 | 70 | 315 | 2.0 | 4.0 | 0.00 | 0.00 | 0.00 | 37 | |
| 20260503223018 | 71 | 253 | 4.0 | 5.0 | 0.00 | 0.00 | 0.00 | 37 | |
| 20260503222518 | 71 | 250 | 4.0 | 7.0 | 0.00 | 0.00 | 0.00 | 37 | |
| 20260503222018 | 71 | 253 | 6.0 | 8.0 | 0.00 | 0.00 | 0.00 | 37 | |
| 20260503221518 | 71 | 324 | 5.0 | 8.0 | 0.00 | 0.00 | 0.00 | 38 | |
| 20260503221059 | 71 | 328 | 2.0 | 5.0 | 0.00 | 0.00 | 0.00 | 38 | |
| 20260503220518 | 71 | 241 | 3.0 | 6.0 | 0.00 | 0.00 | 0.00 | 38 | |
| 20260503220038 | 71 | 327 | 3.0 | 4.0 | 0.00 | 0.00 | 0.00 | 38 | |
| 20260503215516 | 72 | 282 | 5.0 | 7.0 | 0.00 | 0.00 | 0.00 | 38 | |
| 20260503215015 | 72 | 288 | 2.0 | 5.0 | 0.00 | 0.00 | 0.00 | 39 | |
| 20260503214516 | 71 | 267 | 3.0 | 4.0 | 0.00 | 0.00 | 0.00 | 39 | |
| 20260503214016 | 71 | 310 | 2.0 | 7.0 | 0.00 | 0.00 | 0.00 | 39 | |
| 20260503213516 | 71 | 320 | 4.0 | 7.0 | 0.00 | 0.00 | 0.00 | 39 | |
| 20260503213016 | 71 | 264 | 3.0 | 7.0 | 0.00 | 0.00 | 0.00 | 36 | |
| 20260503212516 | 71 | 293 | 4.0 | 6.0 | 0.00 | 0.00 | 0.00 | 38 | |
| 20260503212016 | 71 | 287 | 4.0 | 6.0 | 0.00 | 0.00 | 0.00 | 37 | |
| 20260503211516 | 71 | 276 | 3.0 | 4.0 | 0.00 | 0.00 | 0.00 | 37 | |
| 20260503211016 | 72 | 261 | 2.0 | 5.0 | 0.00 | 0.00 | 0.00 | 37 | |
| 20260503210516 | 72 | 306 | 6.0 | 9.0 | 0.00 | 0.00 | 0.00 | 37 | |
| 20260503210017 | 72 | 229 | 3.0 | 7.0 | 0.00 | 0.00 | 0.00 | 37 | |
| 20260503205516 | 73 | 289 | 5.0 | 9.0 | 0.00 | 0.00 | 0.00 | 35 | |
| 20260503205016 | 72 | 346 | 3.0 | 8.0 | 0.00 | 0.00 | 0.00 | 36 | |
| 20260503204517 | 71 | 267 | 4.0 | 7.0 | 0.00 | 0.00 | 0.00 | 36 | |
| 20260503204017 | 71 | 337 | 4.0 | 6.0 | 0.00 | 0.00 | 0.00 | 36 | |
| 20260503203517 | 71 | 320 | 4.0 | 6.0 | 0.00 | 0.00 | 0.00 | 38 | |
| 20260503203037 | 71 | 261 | 4.0 | 7.0 | 0.00 | 0.00 | 0.00 | 37 | |
| 20260503202517 | 72 | 322 | 5.0 | 9.0 | 0.00 | 0.00 | 0.00 | 36 | |
| 20260503202058 | 72 | 299 | 4.0 | 7.0 | 0.00 | 0.00 | 0.00 | 35 | |
| 20260503201517 | 72 | 332 | 4.0 | 9.0 | 0.00 | 0.00 | 0.00 | 36 | |
| 20260503201017 | 72 | 291 | 4.0 | 7.0 | 0.00 | 0.00 | 0.00 | 35 | |
| 20260503200517 | 71 | 259 | 4.0 | 5.0 | 0.00 | 0.00 | 0.00 | 36 | |
| 20260503200017 | 72 | 262 | 4.0 | 8.0 | 0.00 | 0.00 | 0.00 | 35 | |
| 20260503195517 | 72 | 252 | 3.0 | 5.0 | 0.00 | 0.00 | 0.00 | 36 | |
| 20260503195018 | 72 | 332 | 4.0 | 7.0 | 0.00 | 0.00 | 0.00 | 37 | |
| 20260503194517 | 72 | 311 | 4.0 | 8.0 | 0.00 | 0.00 | 0.00 | 36 | |
| 20260503194017 | 72 | 239 | 4.0 | 7.0 | 0.00 | 0.00 | 0.00 | 34 | |
| 20260503193518 | 71 | 249 | 3.0 | 4.0 | 0.00 | 0.00 | 0.00 | 35 | |
| 20260503193018 | 71 | 321 | 3.0 | 8.0 | 0.00 | 0.00 | 0.00 | 36 | |
| 20260503192518 | 70 | 241 | 2.0 | 8.0 | 0.00 | 0.00 | 0.00 | 37 | |
| 20260503192018 | 70 | 284 | 5.0 | 7.0 | 0.00 | 0.00 | 0.00 | 37 | |
| 20260503191518 | 70 | 273 | 6.0 | 9.0 | 0.00 | 0.00 | 0.00 | 36 | |
| 20260503191018 | 71 | 255 | 3.0 | 5.0 | 0.00 | 0.00 | 0.00 | 35 | |
| 20260503190518 | 71 | 282 | 3.0 | 4.0 | 0.00 | 0.00 | 0.00 | 36 | |
| 20260503190019 | 70 | 297 | 4.0 | 8.0 | 0.00 | 0.00 | 0.00 | 37 | |
| 20260503185518 | 70 | 254 | 4.0 | 8.0 | 0.00 | 0.00 | 0.00 | 35 | |
| 20260503185018 | 70 | 296 | 3.0 | 4.0 | 0.00 | 0.00 | 0.00 | 38 | |
| 20260503184518 | 69 | 284 | 3.0 | 5.0 | 0.00 | 0.00 | 0.00 | 38 | |
| 20260503184019 | 68 | 337 | 3.0 | 5.0 | 0.00 | 0.00 | 0.00 | 40 | |
| 20260503183519 | 68 | 287 | 3.0 | 5.0 | 0.00 | 0.00 | 0.00 | 40 | |
| 20260503183019 | 69 | 287 | 4.0 | 7.0 | 0.00 | 0.00 | 0.00 | 37 | |
| 20260503182519 | 69 | 274 | 3.0 | 6.0 | 0.00 | 0.00 | 0.00 | 38 | |
| 20260503182040 | 69 | 259 | 5.0 | 9.0 | 0.00 | 0.00 | 0.00 | 39 | |
| 20260503181519 | 67 | 169 | 1.0 | 8.0 | 0.00 | 0.00 | 0.00 | 42 | |
| 20260503181019 | 67 | 229 | 3.0 | 5.0 | 0.00 | 0.00 | 0.00 | 43 | |
| 20260503180539 | 68 | 272 | 5.0 | 8.0 | 0.00 | 0.00 | 0.00 | 42 | |
| 20260503180040 | 68 | 280 | 2.0 | 5.0 | 0.00 | 0.00 | 0.00 | 41 | |
| 20260503175519 | 68 | 312 | 5.0 | 8.0 | 0.00 | 0.00 | 0.00 | 41 | |
| 20260503175019 | 68 | 222 | 1.0 | 3.0 | 0.00 | 0.00 | 0.00 | 40 | |
| 20260503174516 | 67 | 227 | 3.0 | 6.0 | 0.00 | 0.00 | 0.00 | 43 | |
| 20260503174017 | 68 | 67 | 3.0 | 5.0 | 0.00 | 0.00 | 0.00 | 42 | |
| 20260503173517 | 68 | 288 | 4.0 | 8.0 | 0.00 | 0.00 | 0.00 | 41 | |
| 20260503173017 | 68 | 299 | 3.0 | 7.0 | 0.00 | 0.00 | 0.00 | 41 | |
| 20260503172517 | 66 | 86 | 2.0 | 7.0 | 0.00 | 0.00 | 0.00 | 42 | |
| 20260503172017 | 66 | 273 | 3.0 | 5.0 | 0.00 | 0.00 | 0.00 | 42 | |
| 20260503171537 | 66 | 297 | 4.0 | 8.0 | 0.00 | 0.00 | 0.00 | 42 | |
| 20260503171037 | 67 | 235 | 4.0 | 6.0 | 0.00 | 0.00 | 0.00 | 41 | |
| 20260503170538 | 66 | 279 | 2.0 | 4.0 | 0.00 | 0.00 | 0.00 | 41 |